EW1233 Weather Reports


Display with metric or nautical units.
time (UTC)temp
F
wind
direction
speed
MPH
gust
MPH
rain 1hr
in
rain 24hr
in
rain mn
in
humidity
%
barometer
mb
20260507083017 31 154 7.0 11.0 0.00 0.00 0.00 73 1011.9
20260507081540 32 150 7.0 10.0 0.00 0.00 0.00 72 1011.9
20260507080006 33 154 5.0 10.0 0.00 0.00 0.00 70 1012.0
20260507074546 34 155 8.0 12.0 0.00 0.00 0.00 68 1012.1
20260507073041 35 154 9.0 13.0 0.00 0.00 0.00 65 1012.2
20260507071512 36 360 8.0 14.0 0.00 0.00 0.00 65 1012.3
20260507070054 36 360 10.0 15.0 0.00 0.00 0.00 65 1012.3
20260507064608 36 360 11.0 15.0 0.00 0.00 0.00 66 1012.4
20260507063032 36 360 9.0 0.0 1.72 0.00 0.00 66 1012.5
20260507061608 37 136 7.0 12.0 0.00 0.00 0.00 64 1012.7
20260507060107 37 129 7.0 12.0 0.00 0.00 0.00 64 1012.7
20260507054538 37 119 7.0 11.0 0.00 0.00 0.00 65 1012.5
20260507053104 37 117 5.0 9.0 0.00 0.00 0.00 65 1012.6
20260507051525 37 130 9.0 12.0 0.00 0.00 0.00 65 1012.5
20260507050036 37 119 6.0 10.0 0.00 0.00 0.00 65 1012.8
20260507044520 38 121 4.0 8.0 0.00 0.00 0.00 63 1013.0
20260507043012 39 118 7.0 11.0 0.00 0.00 0.00 62 1012.9
20260507041512 40 103 3.0 8.0 0.00 0.00 0.00 60 1013.1
20260507040013 41 105 4.0 8.0 0.00 0.00 0.00 60 1013.2
20260507034511 41 94 4.0 9.0 0.00 0.00 0.00 58 1013.3
20260507033008 42 104 2.0 7.0 0.00 0.00 0.00 57 1013.3
20260507031509 43 94 0.0 3.0 0.00 0.00 0.00 55 1013.4
20260507030009 44 95 1.0 5.0 0.00 0.00 0.00 52 1013.5
20260507024507 45 94 1.0 7.0 0.00 0.00 0.00 48 1013.5
20260507023038 46 20 0.0 4.0 0.00 0.00 0.00 45 1013.5
20260507021556 47 17 1.0 4.0 0.00 0.00 0.00 43 1013.4
20260507020110 48 355 0.0 2.0 0.00 0.00 0.00 43 1013.4
20260507014533 48 355 0.0 0.0 0.00 0.00 0.00 42 1013.3
20260507013108 49 355 0.0 6.0 0.00 0.00 0.00 41 1013.3
20260507011532 49 344 0.0 2.0 0.00 0.00 0.00 40 1013.3
20260507010059 50 344 1.0 5.0 0.00 0.00 0.00 39 1013.3
20260507004608 51 5 0.0 6.0 0.00 0.00 0.00 38 1013.3
20260507003025 51 318 2.0 7.0 0.00 0.00 0.00 38 1013.5
20260507001607 51 319 3.0 9.0 0.00 0.00 0.00 39 1013.6
20260507000150 51 323 4.0 10.0 0.00 0.00 0.00 41 1013.8
20260506234540 52 244 2.0 10.0 0.00 0.00 0.00 37 1013.8
20260506233100 52 349 3.0 11.0 0.00 0.00 0.00 39 1014.0
20260506231525 52 5 7.0 13.0 0.00 0.00 0.00 38 1014.1
20260506230048 52 325 7.0 14.0 0.00 0.00 0.00 37 1014.2
20260506224507 52 341 6.0 14.0 0.00 0.00 0.00 38 1014.3
20260506223100 52 346 3.0 9.0 0.00 0.00 0.00 39 1014.5
20260506221526 51 355 6.0 12.0 0.00 0.00 0.00 40 1014.6
20260506220003 51 323 2.0 12.0 0.00 0.00 0.00 44 1014.8
20260506214545 51 280 3.0 16.0 0.00 0.00 0.00 42 1015.0
20260506213006 50 302 2.0 11.0 0.00 0.00 0.00 42 1015.3
20260506211534 50 319 5.0 9.0 0.00 0.00 0.00 44 1015.4
20260506210045 50 309 7.0 17.0 0.00 0.00 0.00 41 1015.7
20260506204508 51 299 6.0 12.0 0.00 0.00 0.00 42 1015.8
20260506203037 51 319 6.0 15.0 0.00 0.00 0.00 40 1016.0
20260506201603 51 319 5.0 15.0 0.00 0.00 0.00 42 1016.1
20260506200026 49 5 7.0 14.0 0.00 0.00 0.00 44 1016.4
20260506194624 50 326 7.0 13.0 0.00 0.00 0.00 43 1016.5
20260506193024 49 323 6.0 11.0 0.00 0.00 0.00 47 1016.9
20260506191559 48 304 9.0 15.0 0.00 0.00 0.00 44 1017.0
20260506190026 49 326 7.0 14.0 0.00 0.00 0.00 47 1017.1
20260506184611 49 303 7.0 14.0 0.00 0.00 0.00 46 1017.2
20260506183134 48 284 5.0 13.0 0.00 0.00 0.00 46 1017.3
20260506181559 48 340 7.0 15.0 0.00 0.00 0.00 45 1017.4
20260506180017 47 298 7.0 16.0 0.00 0.00 0.00 49 1017.7
20260506174547 46 13 4.0 14.0 0.00 0.00 0.00 49 1017.9
20260506173009 46 267 4.0 10.0 0.00 0.00 0.00 48 1018.1
20260506171545 46 298 6.0 16.0 0.00 0.00 0.00 51 1018.3
20260506170008 46 306 7.0 17.0 0.00 0.00 0.00 48 1018.5
20260506164550 46 331 5.0 13.0 0.00 0.00 0.00 50 1018.4
20260506163012 46 338 6.0 14.0 0.00 0.00 0.00 51 1018.6
20260506161601 44 342 8.0 14.0 0.00 0.00 0.00 50 1018.6
20260506160027 45 307 3.0 11.0 0.00 0.00 0.00 51 1018.6
20260506154607 44 337 7.0 12.0 0.00 0.00 0.00 51 1018.6
20260506153107 43 290 4.0 11.0 0.00 0.00 0.00 54 1018.9
20260506151535 43 319 4.0 7.0 0.00 0.00 0.00 57 1018.9
20260506150112 42 332 0.0 7.0 0.00 0.00 0.00 57 1018.9
20260506144642 41 351 0.0 3.0 0.00 0.00 0.00 58 1019.1
20260506143103 40 355 3.0 7.0 0.00 0.00 0.00 60 1019.1
20260506141524 38 360 0.0 4.0 0.00 0.00 0.00 68 1019.1
20260506134545 35 360 0.0 5.0 0.00 0.00 0.00 75 1019.1
20260506133009 34 360 1.0 5.0 0.00 0.00 0.00 75 1019.2
20260506131538 33 360 0.0 4.0 0.00 0.00 0.00 76 1019.0
20260506130012 32 360 2.0 5.0 0.00 0.00 0.00 80 1019.0
20260506124552 30 360 0.0 1.0 0.00 0.00 0.00 87 1018.9
20260506123013 27 360 0.0 0.0 0.00 0.00 0.00 89 1018.8
20260506121542 25 360 0.0 0.0 0.00 0.00 0.00 86 1018.7
20260506120011 24 360 0.0 0.0 0.00 0.00 0.00 84 1018.4
20260506114547 25 360 0.0 0.0 0.00 0.00 0.00 83 1018.3
20260506113015 27 360 0.0 0.0 0.00 0.00 0.00 84 1018.3
20260506111553 27 360 0.0 1.0 0.00 0.00 0.00 85 1018.2
20260506104528 29 360 0.0 0.0 0.00 0.00 0.00 83 1018.1
20260506103110 30 360 0.0 0.0 0.00 0.00 0.00 82 1018.2
20260506101547 31 360 0.0 0.0 0.00 0.00 0.00 81 1018.1
20260506100104 31 360 0.0 0.0 0.00 0.00 0.00 81 1018.3
20260506094526 31 360 0.0 0.0 0.00 0.00 0.00 81 1018.2
20260506093105 31 360 0.0 0.0 0.00 0.00 0.00 82 1018.2
20260506091636 30 360 0.0 0.0 0.00 0.00 0.00 81 1018.1
20260506090035 30 360 0.0 0.0 0.00 0.00 0.00 81 1017.9
20260506084612 31 360 0.0 0.0 0.00 0.00 0.00 79 1017.9